QFA170 YSSY-YBCG

Flight info

Callsign QFA170
Flight time 1h 6m
Altitude 37000
Route OLSEM1/34R OLSEM Y193 BANDA Y43 GREAV DCT GOMOL
Aircraft A320/M-SDE3FGHIRWY/LB1

Departure

Time 2026-05-06 12:04
Airport Sydney Kingsford Smith International Airport (YSSY)

Arrival

Time 2026-05-06 13:10
Airport Gold Coast Airport (YBCG)
Time Latitude Longitude Altitude Speed Heading
2026-05-06 11:52 -33.93899 151.17783 21 ft 3 kts 181°
2026-05-06 11:52 -33.93941 151.17791 22 ft 7 kts 168°
2026-05-06 11:53 -33.93993 151.17805 23 ft 8 kts 167°
2026-05-06 11:53 -33.94098 151.17832 25 ft 19 kts 168°
2026-05-06 11:53 -33.94232 151.17866 24 ft 20 kts 168°
2026-05-06 11:53 -33.94378 151.17903 24 ft 22 kts 168°
2026-05-06 11:54 -33.94532 151.17887 23 ft 23 kts 175°
2026-05-06 11:54 -33.94586 151.17906 24 ft 3 kts 204°
2026-05-06 11:54 -33.94601 151.17902 25 ft 3 kts 178°
2026-05-06 11:54 -33.94694 151.17928 23 ft 33 kts 168°
2026-05-06 11:55 -33.94937 151.17990 22 ft 32 kts 167°
2026-05-06 11:55 -33.95086 151.18056 27 ft 19 kts 122°
2026-05-06 11:55 -33.95080 151.18223 24 ft 22 kts 78°
2026-05-06 11:55 -33.95058 151.18345 25 ft 11 kts 77°
2026-05-06 11:56 -33.95046 151.18418 28 ft 0 kts 79°
2026-05-06 11:56 -33.95053 151.18490 27 ft 24 kts 121°
2026-05-06 11:56 -33.95155 151.18590 31 ft 19 kts 141°
2026-05-06 11:57 -33.95265 151.18691 28 ft 21 kts 149°
2026-05-06 11:57 -33.95410 151.18745 23 ft 24 kts 168°
2026-05-06 11:57 -33.95581 151.18787 24 ft 26 kts 168°
2026-05-06 11:57 -33.95755 151.18835 28 ft 27 kts 167°
2026-05-06 11:58 -33.95948 151.18886 27 ft 36 kts 168°
2026-05-06 11:58 -33.96230 151.18959 26 ft 42 kts 168°
2026-05-06 11:58 -33.96524 151.19036 19 ft 45 kts 168°
2026-05-06 11:58 -33.96784 151.19069 19 ft 34 kts 187°
2026-05-06 11:59 -33.97013 151.19118 20 ft 28 kts 168°
2026-05-06 11:59 -33.97130 151.19181 21 ft 16 kts 116°
2026-05-06 11:59 -33.97132 151.19191 21 ft 0 kts 102°
2026-05-06 11:59 -33.97131 151.19217 21 ft 12 kts 85°
2026-05-06 12:00 -33.97120 151.19277 21 ft 0 kts 76°
2026-05-06 12:02 -33.97119 151.19280 21 ft 2 kts 76°
2026-05-06 12:02 -33.97081 151.19377 22 ft 11 kts 24°
2026-05-06 12:02 -33.97025 151.19366 20 ft 0 kts 347°
2026-05-06 12:04 -33.96870 151.19326 19 ft 56 kts 348°
2026-05-06 12:04 -33.96285 151.19175 24 ft 114 kts 348°
2026-05-06 12:04 -33.95355 151.18935 24 ft 159 kts 348°
2026-05-06 12:04 -33.94268 151.18756 654 ft 145 kts
2026-05-06 12:05 -33.93405 151.19198 1259 ft 141 kts 41°
2026-05-06 12:05 -33.92794 151.20198 1660 ft 150 kts 47°
2026-05-06 12:05 -33.91968 151.21060 1822 ft 169 kts 26°
2026-05-06 12:05 -33.90861 151.21712 2120 ft 186 kts 20°
2026-05-06 12:06 -33.89622 151.22475 2387 ft 213 kts 26°
2026-05-06 12:06 -33.88285 151.23456 2751 ft 238 kts 28°
2026-05-06 12:06 -33.86824 151.24586 3269 ft 256 kts 30°
2026-05-06 12:06 -33.85329 151.25765 4034 ft 264 kts 30°
2026-05-06 12:07 -33.83859 151.27144 4863 ft 273 kts 46°
2026-05-06 12:07 -33.82881 151.29154 5665 ft 283 kts 69°
2026-05-06 12:07 -33.82310 151.31415 6525 ft 287 kts 71°
2026-05-06 12:07 -33.81729 151.33733 7303 ft 291 kts 71°
2026-05-06 12:08 -33.81033 151.36036 8072 ft 293 kts 60°
2026-05-06 12:08 -33.79914 151.38085 8856 ft 293 kts 47°
2026-05-06 12:08 -33.78636 151.39975 9643 ft 296 kts 47°
2026-05-06 12:08 -33.77314 151.41930 10358 ft 302 kts 47°
2026-05-06 12:09 -33.75950 151.43939 10573 ft 325 kts 47°
2026-05-06 12:09 -33.74467 151.46125 10713 ft 348 kts 47°
2026-05-06 12:09 -33.72901 151.48438 11121 ft 360 kts 48°
2026-05-06 12:09 -33.71331 151.50774 11706 ft 365 kts 48°
2026-05-06 12:10 -33.69716 151.53183 12337 ft 370 kts 48°
2026-05-06 12:10 -33.68089 151.55605 12987 ft 373 kts 48°
2026-05-06 12:10 -33.66461 151.58023 13635 ft 377 kts 48°
2026-05-06 12:10 -33.64680 151.60345 14216 ft 378 kts 39°
2026-05-06 12:11 -33.62573 151.62253 14783 ft 377 kts 29°
2026-05-06 12:11 -33.60386 151.63954 15358 ft 380 kts 30°
2026-05-06 12:11 -33.58160 151.65695 15928 ft 383 kts 30°
2026-05-06 12:11 -33.55923 151.67454 16489 ft 386 kts 30°
2026-05-06 12:12 -33.53660 151.69235 17082 ft 388 kts 30°
2026-05-06 12:12 -33.51411 151.71002 17677 ft 391 kts 29°
2026-05-06 12:12 -33.49012 151.72530 18259 ft 390 kts 19°
2026-05-06 12:12 -33.46446 151.73535 18795 ft 390 kts 11°
2026-05-06 12:13 -33.43808 151.74378 19327 ft 393 kts 11°
2026-05-06 12:13 -33.41148 151.75234 19878 ft 396 kts 11°
2026-05-06 12:13 -33.38468 151.76103 20423 ft 399 kts 11°
2026-05-06 12:13 -33.35808 151.76968 20929 ft 402 kts 11°
2026-05-06 12:14 -33.33088 151.77851 21419 ft 405 kts 11°
2026-05-06 12:14 -33.30352 151.78738 21900 ft 408 kts 10°
2026-05-06 12:14 -33.27616 151.79620 22358 ft 411 kts 10°
2026-05-06 12:14 -33.24833 151.80514 22817 ft 414 kts 10°
2026-05-06 12:15 -33.22069 151.81402 23256 ft 416 kts 10°
2026-05-06 12:15 -33.19262 151.82306 23687 ft 419 kts
2026-05-06 12:15 -33.16426 151.83222 24055 ft 422 kts
2026-05-06 12:15 -33.13577 151.84142 24429 ft 424 kts
2026-05-06 12:16 -33.10746 151.85053 24772 ft 425 kts
2026-05-06 12:16 -33.07872 151.85980 25142 ft 427 kts
2026-05-06 12:16 -33.04989 151.86907 25498 ft 429 kts
2026-05-06 12:16 -33.02116 151.87826 25847 ft 430 kts
2026-05-06 12:17 -32.99213 151.88753 26198 ft 432 kts
2026-05-06 12:17 -32.96324 151.89678 26551 ft 434 kts
2026-05-06 12:17 -32.93391 151.90616 26897 ft 436 kts
2026-05-06 12:17 -32.90435 151.91566 27247 ft 438 kts
2026-05-06 12:18 -32.87516 151.92503 27567 ft 439 kts
2026-05-06 12:18 -32.84558 151.93450 27912 ft 441 kts
2026-05-06 12:18 -32.81580 151.94402 28242 ft 442 kts
2026-05-06 12:18 -32.78596 151.95353 28614 ft 443 kts
2026-05-06 12:19 -32.75618 151.96300 29101 ft 441 kts
2026-05-06 12:19 -32.72688 151.97232 29579 ft 439 kts
2026-05-06 12:19 -32.69721 151.98179 30063 ft 438 kts
2026-05-06 12:19 -32.66777 151.99122 30496 ft 437 kts
2026-05-06 12:20 -32.63875 152.00048 30902 ft 435 kts
2026-05-06 12:20 -32.60939 152.00981 31321 ft 434 kts
2026-05-06 12:20 -32.58052 152.01897 31732 ft 433 kts
2026-05-06 12:20 -32.55133 152.02824 32152 ft 431 kts
2026-05-06 12:21 -32.52231 152.03745 32568 ft 430 kts
2026-05-06 12:21 -32.49363 152.04654 32977 ft 429 kts
2026-05-06 12:21 -32.46468 152.05568 33385 ft 428 kts
2026-05-06 12:21 -32.43582 152.06478 33784 ft 427 kts
2026-05-06 12:22 -32.40728 152.07382 34170 ft 426 kts
2026-05-06 12:22 -32.37867 152.08289 34503 ft 425 kts
2026-05-06 12:22 -32.35030 152.09186 34820 ft 424 kts
2026-05-06 12:22 -32.32178 152.10084 35121 ft 425 kts
2026-05-06 12:23 -32.29308 152.10987 35415 ft 424 kts
2026-05-06 12:23 -32.26447 152.11885 35700 ft 424 kts
2026-05-06 12:23 -32.23582 152.12787 35968 ft 424 kts
2026-05-06 12:23 -32.20722 152.13691 36159 ft 425 kts
2026-05-06 12:24 -32.17903 152.14581 36417 ft 425 kts
2026-05-06 12:24 -32.15035 152.15484 36665 ft 425 kts
2026-05-06 12:24 -32.12167 152.16387 36916 ft 425 kts
2026-05-06 12:24 -32.09305 152.17287 37058 ft 426 kts
2026-05-06 12:25 -32.03534 152.19092 37089 ft 434 kts
2026-05-06 12:25 -31.97679 152.20926 37090 ft 436 kts
2026-05-06 12:26 -31.91842 152.22760 37096 ft 436 kts
2026-05-06 12:26 -31.85960 152.24607 37095 ft 436 kts
2026-05-06 12:27 -31.80114 152.26424 37104 ft 437 kts
2026-05-06 12:27 -31.74247 152.28249 37094 ft 436 kts
2026-05-06 12:28 -31.68378 152.30079 37106 ft 436 kts
2026-05-06 12:28 -31.62530 152.31903 37112 ft 435 kts
2026-05-06 12:29 -31.56669 152.33732 37114 ft 435 kts
2026-05-06 12:29 -31.50810 152.35547 37103 ft 435 kts
2026-05-06 12:30 -31.44975 152.37342 37116 ft 435 kts
2026-05-06 12:30 -31.39106 152.39154 37118 ft 435 kts
2026-05-06 12:31 -31.33261 152.40962 37111 ft 435 kts
2026-05-06 12:31 -31.27437 152.42761 37098 ft 435 kts
2026-05-06 12:32 -31.21572 152.44577 37108 ft 435 kts
2026-05-06 12:32 -31.15746 152.46359 37107 ft 434 kts
2026-05-06 12:33 -31.09890 152.48150 37113 ft 435 kts
2026-05-06 12:33 -31.04056 152.49949 37081 ft 435 kts
2026-05-06 12:34 -30.98181 152.51762 37110 ft 436 kts
2026-05-06 12:34 -30.92357 152.53540 37111 ft 435 kts
2026-05-06 12:35 -30.86470 152.55334 37113 ft 435 kts
2026-05-06 12:35 -30.80631 152.57126 37095 ft 438 kts
2026-05-06 12:36 -30.74842 152.59693 37105 ft 448 kts
2026-05-06 12:36 -30.70009 152.61944 37114 ft 448 kts
2026-05-06 12:37 -30.64241 152.64621 37116 ft 448 kts
2026-05-06 12:37 -30.57489 152.67742 37097 ft 448 kts
2026-05-06 12:38 -30.52671 152.69964 37100 ft 448 kts
2026-05-06 12:38 -30.46857 152.72645 37110 ft 449 kts
2026-05-06 12:39 -30.41083 152.75308 37118 ft 449 kts
2026-05-06 12:39 -30.35263 152.77984 37122 ft 449 kts
2026-05-06 12:40 -30.29455 152.80660 37139 ft 447 kts
2026-05-06 12:40 -30.26564 152.81991 36754 ft 446 kts
2026-05-06 12:40 -30.23703 152.83305 36106 ft 447 kts
2026-05-06 12:41 -30.20807 152.84633 35475 ft 448 kts 10°
2026-05-06 12:41 -30.17896 152.85966 34846 ft 449 kts 11°
2026-05-06 12:41 -30.15014 152.87281 34179 ft 450 kts 11°
2026-05-06 12:41 -30.12087 152.88616 33519 ft 451 kts 12°
2026-05-06 12:42 -30.09158 152.89952 32857 ft 453 kts 12°
2026-05-06 12:42 -30.06223 152.91293 32227 ft 455 kts 12°
2026-05-06 12:42 -30.03260 152.92647 31594 ft 456 kts 13°
2026-05-06 12:42 -30.00338 152.93982 30984 ft 457 kts 13°
2026-05-06 12:43 -29.97359 152.95346 30383 ft 458 kts 13°
2026-05-06 12:43 -29.94391 152.96705 29724 ft 459 kts 14°
2026-05-06 12:43 -29.91412 152.98067 29061 ft 457 kts 14°
2026-05-06 12:43 -29.88489 152.99404 28544 ft 454 kts 14°
2026-05-06 12:44 -29.85549 153.00746 28008 ft 451 kts 14°
2026-05-06 12:44 -29.82641 153.02069 27494 ft 448 kts 14°
2026-05-06 12:44 -29.79775 153.03372 26992 ft 445 kts 14°
2026-05-06 12:44 -29.76878 153.04689 26494 ft 442 kts 14°
2026-05-06 12:45 -29.74026 153.05983 26001 ft 439 kts 14°
2026-05-06 12:45 -29.71227 153.07253 25525 ft 436 kts 15°
2026-05-06 12:45 -29.65603 153.09797 24573 ft 430 kts 15°
2026-05-06 12:46 -29.62818 153.11054 24115 ft 428 kts 15°
2026-05-06 12:46 -29.60080 153.12297 23665 ft 425 kts 15°
2026-05-06 12:46 -29.57338 153.13543 23144 ft 422 kts 15°
2026-05-06 12:46 -29.54606 153.14783 22604 ft 419 kts 15°
2026-05-06 12:47 -29.51902 153.16007 22093 ft 416 kts 15°
2026-05-06 12:47 -29.49248 153.17207 21590 ft 413 kts 16°
2026-05-06 12:47 -29.46582 153.18406 21070 ft 410 kts 16°
2026-05-06 12:47 -29.43920 153.19602 20577 ft 407 kts 16°
2026-05-06 12:48 -29.41310 153.20777 20099 ft 404 kts 16°
2026-05-06 12:48 -29.38693 153.21952 19627 ft 402 kts 16°
2026-05-06 12:48 -29.36095 153.23121 19156 ft 399 kts 16°
2026-05-06 12:48 -29.33515 153.24284 18696 ft 396 kts 17°
2026-05-06 12:49 -29.30957 153.25435 18213 ft 393 kts 17°
2026-05-06 12:49 -29.28438 153.26564 17691 ft 390 kts 17°
2026-05-06 12:49 -29.25924 153.27690 17178 ft 387 kts 17°
2026-05-06 12:49 -29.23440 153.28807 16668 ft 383 kts 17°
2026-05-06 12:50 -29.20984 153.29914 16168 ft 379 kts 17°
2026-05-06 12:50 -29.18528 153.31020 15671 ft 376 kts 17°
2026-05-06 12:50 -29.16098 153.32114 15184 ft 372 kts 17°
2026-05-06 12:50 -29.13692 153.33194 14708 ft 369 kts 17°
2026-05-06 12:51 -29.11329 153.34251 14251 ft 366 kts 17°
2026-05-06 12:51 -29.08965 153.35308 13771 ft 362 kts 17°
2026-05-06 12:51 -29.06644 153.36346 13269 ft 360 kts 17°
2026-05-06 12:51 -29.04317 153.37383 13093 ft 359 kts 17°
2026-05-06 12:52 -29.01974 153.38427 13116 ft 360 kts 17°
2026-05-06 12:52 -28.99657 153.39459 13107 ft 360 kts 18°
2026-05-06 12:52 -28.97316 153.40503 13117 ft 360 kts 18°
2026-05-06 12:52 -28.94972 153.41551 13117 ft 361 kts 18°
2026-05-06 12:53 -28.92630 153.42597 13121 ft 360 kts 18°
2026-05-06 12:53 -28.90317 153.43630 13110 ft 360 kts 18°
2026-05-06 12:53 -28.89527 153.43982 13113 ft 360 kts 18°
2026-05-06 12:53 -28.85631 153.45723 13120 ft 360 kts 18°
2026-05-06 12:54 -28.83327 153.46749 13043 ft 360 kts 18°
2026-05-06 12:54 -28.80995 153.47785 12708 ft 359 kts 18°
2026-05-06 12:54 -28.78671 153.48817 12248 ft 355 kts 18°
2026-05-06 12:54 -28.76362 153.49841 12002 ft 355 kts 18°
2026-05-06 12:55 -28.74054 153.50865 11749 ft 355 kts 18°
2026-05-06 12:55 -28.71753 153.51884 11501 ft 354 kts 18°
2026-05-06 12:55 -28.69483 153.52888 11261 ft 353 kts 18°
2026-05-06 12:55 -28.67196 153.53903 11017 ft 352 kts 18°
2026-05-06 12:56 -28.64920 153.54917 10775 ft 346 kts 18°
2026-05-06 12:56 -28.62717 153.55901 10529 ft 335 kts 18°
2026-05-06 12:56 -28.60584 153.56853 10301 ft 326 kts 18°
2026-05-06 12:56 -28.58486 153.57787 10059 ft 318 kts 18°
2026-05-06 12:57 -28.56474 153.58682 9885 ft 309 kts 18°
2026-05-06 12:57 -28.54488 153.59567 9650 ft 302 kts 18°
2026-05-06 12:57 -28.52562 153.60419 9391 ft 297 kts 18°
2026-05-06 12:57 -28.50629 153.61211 9129 ft 291 kts 17°
2026-05-06 12:58 -28.48716 153.61935 8999 ft 288 kts 15°
2026-05-06 12:58 -28.46828 153.62626 9006 ft 288 kts 15°
2026-05-06 12:58 -28.44910 153.63322 9009 ft 288 kts 15°
2026-05-06 12:58 -28.42998 153.64024 9009 ft 289 kts 15°
2026-05-06 12:59 -28.41105 153.64728 9010 ft 289 kts 16°
2026-05-06 12:59 -28.39179 153.65450 8763 ft 291 kts 16°
2026-05-06 12:59 -28.37246 153.66164 8389 ft 291 kts 16°
2026-05-06 12:59 -28.35328 153.66863 8019 ft 291 kts 15°
2026-05-06 13:00 -28.33399 153.67562 7648 ft 291 kts 15°
2026-05-06 13:00 -28.31488 153.68255 7288 ft 290 kts 16°
2026-05-06 13:00 -28.29522 153.68839 6917 ft 288 kts
2026-05-06 13:00 -28.27555 153.68861 6569 ft 285 kts 351°
2026-05-06 13:01 -28.25677 153.68330 6195 ft 275 kts 338°
2026-05-06 13:01 -28.23868 153.67595 5818 ft 274 kts 338°
2026-05-06 13:01 -28.22069 153.66870 5445 ft 273 kts 339°
2026-05-06 13:01 -28.20284 153.66153 5086 ft 271 kts 339°
2026-05-06 13:02 -28.18532 153.65450 5004 ft 271 kts 339°
2026-05-06 13:02 -28.16746 153.64735 5002 ft 271 kts 339°
2026-05-06 13:02 -28.14968 153.64027 5013 ft 271 kts 339°
2026-05-06 13:02 -28.13208 153.63324 5007 ft 271 kts 339°
2026-05-06 13:03 -28.11420 153.62611 5000 ft 272 kts 339°
2026-05-06 13:03 -28.09643 153.61901 4876 ft 270 kts 339°
2026-05-06 13:03 -28.07884 153.61198 4664 ft 269 kts 339°
2026-05-06 13:03 -28.06120 153.60490 4410 ft 268 kts 339°
2026-05-06 13:04 -28.04398 153.59698 4150 ft 266 kts 328°
2026-05-06 13:04 -28.03005 153.58333 3776 ft 266 kts 306°
2026-05-06 13:04 -28.02184 153.56510 3410 ft 256 kts 284°
2026-05-06 13:04 -28.01996 153.54550 3033 ft 245 kts 268°
2026-05-06 13:05 -28.02028 153.52666 2762 ft 233 kts 268°
2026-05-06 13:05 -28.02049 153.50887 2572 ft 223 kts 269°
2026-05-06 13:05 -28.02069 153.49140 2511 ft 217 kts 268°
2026-05-06 13:05 -28.02089 153.47483 2507 ft 209 kts 268°
2026-05-06 13:06 -28.02111 153.45842 2520 ft 204 kts 267°
2026-05-06 13:06 -28.02456 153.44378 2507 ft 185 kts 235°
2026-05-06 13:06 -28.03351 153.43471 2474 ft 166 kts 201°
2026-05-06 13:06 -28.04424 153.43224 2400 ft 151 kts 174°
2026-05-06 13:07 -28.05398 153.43556 2290 ft 144 kts 149°
2026-05-06 13:07 -28.06255 153.44102 2120 ft 140 kts 149°
2026-05-06 13:07 -28.07103 153.44639 1943 ft 140 kts 150°
2026-05-06 13:07 -28.07941 153.45171 1763 ft 140 kts 149°
2026-05-06 13:08 -28.08785 153.45707 1572 ft 138 kts 149°
2026-05-06 13:08 -28.09613 153.46232 1400 ft 139 kts 149°
2026-05-06 13:08 -28.10461 153.46764 1195 ft 139 kts 150°
2026-05-06 13:08 -28.11314 153.47271 1012 ft 138 kts 151°
2026-05-06 13:09 -28.12140 153.47821 821 ft 138 kts 147°
2026-05-06 13:09 -28.12962 153.48370 655 ft 139 kts 150°
2026-05-06 13:09 -28.13805 153.48911 497 ft 137 kts 152°
2026-05-06 13:09 -28.14614 153.49419 297 ft 141 kts 152°
2026-05-06 13:10 -28.15446 153.49952 124 ft 140 kts 153°
2026-05-06 13:10 -28.16278 153.50468 27 ft 121 kts 151°
2026-05-06 13:10 -28.16778 153.50786 28 ft 53 kts 150°
2026-05-06 13:10 -28.16939 153.50929 27 ft 16 kts 95°
2026-05-06 13:11 -28.16906 153.51027 25 ft 11 kts 60°
2026-05-06 13:11 -28.16876 153.51084 25 ft 5 kts 59°
2026-05-06 13:11 -28.16853 153.51132 25 ft 9 kts 61°
2026-05-06 13:11 -28.16846 153.51147 25 ft 0 kts 61°
2026-05-06 13:13 -28.16845 153.51148 28 ft 1 kts 53°
2026-05-06 13:13 -28.16805 153.51177 25 ft 9 kts 57°
2026-05-06 13:13 -28.16771 153.51245 28 ft 11 kts 60°
2026-05-06 13:14 -28.16767 153.51254 28 ft 0 kts 60°